FW5264 Chilmark MA US current weather conditions

sailwx.info

Wind from 055 at 0 knots

Air temperature 25.0° C
Dewpoint 19.1° C

Last reported at 2020-Jul-04 20:03 UTC.
Time now 2020-Jul-04 20:50 UTC

Location: N 41°23' W 070°41'.
View on Google Maps.

See reports from other nearby stations

  
Tides and Currents Weather Stations Pressure Air Temp Water Temp Dewpoint Dewpoint Depression Visibility Wind Speed Wind Dir Waves Ship Positions
date/time (UTC)wind fromknots sea level pressurealtimeterstation pressurevisibilityair tempwater tempwave heightnotes
2020-Jul-04 20:03 055 0 25.0
2020-Jul-04 19:54 149 2 25.6
2020-Jul-04 19:44 221 24.4
2020-Jul-04 19:35 270 23.9
2020-Jul-04 19:25 343 0 23.3
2020-Jul-04 19:16 015 1 23.3
2020-Jul-04 19:07 045 23.3
2020-Jul-04 18:57 039 1 22.8
2020-Jul-04 18:47 044 0 22.8
2020-Jul-04 18:37 061 1 23.3
2020-Jul-04 18:28 042 1 23.3
2020-Jul-04 18:18 326 2 22.8
2020-Jul-04 18:09 084 22.8
2020-Jul-04 17:59 112 22.2
2020-Jul-04 17:49 194 21.7
2020-Jul-04 17:40 352 1 21.7
2020-Jul-04 17:30 346 0 22.8
2020-Jul-04 17:20 070 0 22.2
2020-Jul-04 17:10 026 0 22.2
2020-Jul-04 17:00 024 1 21.7
2020-Jul-04 16:51 035 0 21.7
2020-Jul-04 16:42 025 1 21.7
2020-Jul-04 16:32 019 21.1
2020-Jul-04 16:23 001 2 21.7
2020-Jul-04 16:14 360 2 21.7
2020-Jul-04 16:05 359 1 21.1
2020-Jul-04 15:55 338 21.1
2020-Jul-04 15:46 026 1 21.1
2020-Jul-04 15:37 036 2 21.1
2020-Jul-04 15:27 038 2 21.7
2020-Jul-04 15:18 020 2 21.7
2020-Jul-04 15:09 028 0 21.1
2020-Jul-04 14:59 008 2 21.1
2020-Jul-04 14:49 042 1 21.1
2020-Jul-04 14:39 038 3 21.1
2020-Jul-04 14:30 353 20.6
2020-Jul-04 14:20 002 2 20.6
2020-Jul-04 14:10 044 20.0
2020-Jul-04 14:00 010 3 20.0
2020-Jul-04 13:51 332 20.0
2020-Jul-04 13:41 002 2 20.0
2020-Jul-04 13:32 012 2 19.4
2020-Jul-04 13:23 355 1 19.4
2020-Jul-04 13:14 023 1 18.9
2020-Jul-04 13:04 029 2 18.9
2020-Jul-04 12:54 045 18.3
2020-Jul-04 12:44 019 1 18.3
2020-Jul-04 12:34 014 2 18.3
2020-Jul-04 12:25 017 0 18.3
2020-Jul-04 12:15 020 1 18.3
2020-Jul-04 12:06 346 2 18.3
2020-Jul-04 11:56 002 3 18.3
2020-Jul-04 11:47 026 3 18.3
2020-Jul-04 11:38 351 0 18.3
2020-Jul-04 11:28 019 0 18.3
2020-Jul-04 11:18 304 18.3
2020-Jul-04 11:08 358 2 18.3
2020-Jul-04 10:59 009 1 17.8
2020-Jul-04 10:50 346 1 17.8
2020-Jul-04 10:41 360 2 17.8
2020-Jul-04 10:32 045 1 17.8
2020-Jul-04 10:22 019 1 18.3
2020-Jul-04 10:12 015 0 18.3
2020-Jul-04 10:03 015 0 18.3
2020-Jul-04 09:53 317 1 18.3
2020-Jul-04 09:44 030 1 18.3
2020-Jul-04 09:35 360 18.3
2020-Jul-04 09:25 011 0 18.3
2020-Jul-04 09:16 022 0 17.8
2020-Jul-04 09:06 026 17.8
2020-Jul-04 08:57 063 1 17.8
2020-Jul-04 08:47 358 0 17.8
2020-Jul-04 08:38 338 17.8
2020-Jul-04 08:28 020 0 17.8
2020-Jul-04 08:18 352 0 17.8
2020-Jul-04 08:09 018 0 17.8
2020-Jul-04 07:59 003 1 17.8
2020-Jul-04 07:49 360 2 17.8
2020-Jul-04 07:39 360 17.8
2020-Jul-04 07:29 016 1 17.8
2020-Jul-04 07:19 034 1 17.8
2020-Jul-04 07:10 009 1 17.8
2020-Jul-04 07:00 029 2 17.8
2020-Jul-04 06:50 003 1 17.8
2020-Jul-04 06:40 349 0 17.8
2020-Jul-04 06:30 007 2 17.8
2020-Jul-04 06:22 338 2 17.8
2020-Jul-04 06:11 002 0 17.8
2020-Jul-04 06:01 349 1 17.8
2020-Jul-04 05:52 010 17.8
2020-Jul-04 05:42 026 3 17.8
2020-Jul-04 05:32 338 1 17.8
2020-Jul-04 05:23 345 0 17.8
2020-Jul-04 05:13 018 1 17.8
2020-Jul-04 05:03 005 0 17.8
2020-Jul-04 04:53 355 1 17.8
2020-Jul-04 04:44 326 1 17.8
2020-Jul-04 04:34 005 2 17.8
2020-Jul-04 04:25 349 1 17.8
2020-Jul-04 04:15 354 1 17.8
2020-Jul-04 04:05 341 1 17.8
2020-Jul-04 03:55 001 2 17.8
2020-Jul-04 03:45 360 0 17.8
2020-Jul-04 03:35 005 1 17.8
2020-Jul-04 03:25 346 1 17.8
2020-Jul-04 03:15 354 2 17.8
2020-Jul-04 03:05 005 1 17.8
2020-Jul-04 02:56 014 2 17.8
2020-Jul-04 02:47 009 3 17.8
2020-Jul-04 02:37 345 1 17.8
2020-Jul-04 02:28 022 2 17.8
2020-Jul-04 02:18 026 2 17.8
2020-Jul-04 02:08 013 1 17.8
2020-Jul-04 01:59 041 3 17.8
2020-Jul-04 01:49 010 1 17.8
2020-Jul-04 01:40 025 1 17.8
2020-Jul-04 01:30 024 17.8
2020-Jul-04 01:21 035 0 17.8
2020-Jul-04 01:11 355 2 17.8
2020-Jul-04 01:02 007 18.3
2020-Jul-04 00:52 035 0 18.3
2020-Jul-04 00:43 013 0 18.3
2020-Jul-04 00:33 017 2 18.3
2020-Jul-04 00:24 311 18.3
2020-Jul-04 00:15 328 0 18.3
2020-Jul-04 00:05 360 0 18.3
2020-Jul-03 23:56 010 1 18.3
2020-Jul-03 23:46 032 0 18.9
2020-Jul-03 23:37 015 2 18.9
2020-Jul-03 23:27 034 0 18.9
2020-Jul-03 23:17 014 1 18.9
2020-Jul-03 23:07 019 3 18.9
2020-Jul-03 22:58 034 1 18.9
2020-Jul-03 22:48 351 1 18.9
2020-Jul-03 22:39 350 1 18.9
2020-Jul-03 22:29 330 1 19.4
2020-Jul-03 22:19 011 1 19.4
2020-Jul-03 22:10 342 0 19.4
2020-Jul-03 22:00 017 2 19.4
2020-Jul-03 21:50 077 1 19.4
2020-Jul-03 21:40 028 2 19.4
2020-Jul-03 21:31 022 1 20.0
2020-Jul-03 21:22 350 2 20.0
2020-Jul-03 21:12 021 1 20.0
2020-Jul-03 21:03 044 2 20.0
2020-Jul-03 20:53 040 2 20.0
2020-Jul-03 20:43 005 1 19.4
2020-Jul-03 20:33 041 20.0
2020-Jul-03 20:24 360 3 20.0
2020-Jul-03 20:14 045 2 20.0
2020-Jul-03 20:04 019 3 20.6
2020-Jul-03 19:54 049 0 20.6
2020-Jul-03 19:45 351 2 20.6
2020-Jul-03 19:35 007 1 21.1
2020-Jul-03 19:25 025 3 21.7
2020-Jul-03 19:15 030 3 22.2
2020-Jul-03 19:05 037 0 22.8
2020-Jul-03 18:55 043 1 23.9
2020-Jul-03 18:46 017 5 23.9
2020-Jul-03 18:36 303 0 23.9
2020-Jul-03 18:27 347 4 23.9
2020-Jul-03 18:18 014 0 23.9
2020-Jul-03 18:08 003 0 23.9
2020-Jul-03 17:58 357 4 23.9
2020-Jul-03 17:49 021 2 23.3
2020-Jul-03 17:40 357 1 23.3
2020-Jul-03 17:30 028 3 23.3
2020-Jul-03 17:20 004 4 23.3
2020-Jul-03 17:11 033 3 23.3
2020-Jul-03 17:01 358 1 23.3
2020-Jul-03 16:52 353 1 23.3
2020-Jul-03 16:43 007 3 22.8
2020-Jul-03 16:33 008 4 23.3
2020-Jul-03 16:24 356 1 22.8
2020-Jul-03 16:14 019 1 23.3
2020-Jul-03 16:04 028 1 22.2
2020-Jul-03 15:54 027 2 22.2
2020-Jul-03 15:44 032 2 22.2
2020-Jul-03 15:34 341 2 22.2
2020-Jul-03 15:24 028 2 22.2
2020-Jul-03 15:14 015 2 22.8
2020-Jul-03 15:05 050 3 22.8
2020-Jul-03 14:56 024 3 23.3
2020-Jul-03 14:46 002 2 23.3
2020-Jul-03 14:37 055 2 23.9
2020-Jul-03 14:27 351 0 24.4
2020-Jul-03 14:18 018 3 24.4
2020-Jul-03 14:09 036 2 24.4
2020-Jul-03 13:59 030 1 25.6
2020-Jul-03 13:50 050 1 26.1
2020-Jul-03 13:41 017 1 25.6
2020-Jul-03 13:31 029 0 25.6
2020-Jul-03 13:22 033 1 25.6
2020-Jul-03 13:13 022 3 25.6
2020-Jul-03 13:03 356 1 26.1
2020-Jul-03 12:54 313 0 25.6
2020-Jul-03 12:44 018 3 25.0
2020-Jul-03 12:35 343 0 25.0
2020-Jul-03 12:25 303 0 25.0
2020-Jul-03 12:15 359 2 25.0
2020-Jul-03 12:05 011 1 25.0
2020-Jul-03 11:56 009 24.4
2020-Jul-03 11:47 359 0 24.4
2020-Jul-03 11:38 022 23.9
2020-Jul-03 11:28 360 23.3
2020-Jul-03 11:18 021 2 22.8
2020-Jul-03 11:09 337 22.2
2020-Jul-03 10:59 355 0 21.7
2020-Jul-03 10:50 014 0 21.1
2020-Jul-03 10:40 348 20.6
2020-Jul-03 10:30 045 20.6
2020-Jul-03 10:21 045 20.0
2020-Jul-03 10:11 270 19.4
2020-Jul-03 10:02 270 19.4
2020-Jul-03 09:53 270 18.9
2020-Jul-03 09:43 270 19.4
2020-Jul-03 09:33 270 19.4
2020-Jul-03 09:23 225 18.9
2020-Jul-03 09:13 225 18.9
2020-Jul-03 09:04 225 19.4
2020-Jul-03 08:54 225 19.4
2020-Jul-03 08:45 225 19.4
2020-Jul-03 08:35 225 19.4
2020-Jul-03 08:26 225 19.4
2020-Jul-03 08:17 225 20.0
2020-Jul-03 08:08 225 20.0
2020-Jul-03 07:58 235 19.4
2020-Jul-03 07:49 202 19.4
2020-Jul-03 07:39 202 19.4
2020-Jul-03 07:30 202 19.4
2020-Jul-03 07:20 202 19.4
2020-Jul-03 07:11 202 18.9
2020-Jul-03 07:01 202 18.9
2020-Jul-03 06:52 211 18.9
2020-Jul-03 06:42 225 19.4
2020-Jul-03 06:33 225 19.4
2020-Jul-03 06:23 225 19.4
2020-Jul-03 06:14 225 19.4
2020-Jul-03 06:05 202 19.4
2020-Jul-03 05:55 158 0 20.0
2020-Jul-03 05:46 202 20.0
2020-Jul-03 05:37 202 20.0
2020-Jul-03 05:27 202 20.0
2020-Jul-03 05:18 202 20.0
2020-Jul-03 05:09 202 20.0
2020-Jul-03 04:59 202 20.0
2020-Jul-03 04:49 202 20.0
2020-Jul-03 04:40 090 20.6
2020-Jul-03 04:30 225 20.6
2020-Jul-03 04:20 112 20.6
2020-Jul-03 04:10 217 1 20.6
2020-Jul-03 04:01 183 20.6
2020-Jul-03 03:51 198 0 20.6
2020-Jul-03 03:41 260 1 20.6
2020-Jul-03 03:32 192 0 20.6
2020-Jul-03 03:22 220 0 20.6
2020-Jul-03 03:13 217 0 20.6
2020-Jul-03 03:03 261 20.6
2020-Jul-03 02:54 251 0 20.6
2020-Jul-03 02:44 249 20.6
2020-Jul-03 02:35 228 20.6
2020-Jul-03 02:25 245 20.6
2020-Jul-03 02:16 225 20.6
2020-Jul-03 02:07 241 20.0
2020-Jul-03 01:57 222 0 20.0
2020-Jul-03 01:48 206 20.0
2020-Jul-03 01:38 225 20.6
2020-Jul-03 01:29 180 20.6
2020-Jul-03 01:20 204 20.6
2020-Jul-03 01:10 206 20.6
2020-Jul-03 01:00 270 20.6
2020-Jul-03 00:50 212 0 21.1
2020-Jul-03 00:40 260 21.1
2020-Jul-03 00:30 270 0 21.1
2020-Jul-03 00:20 227 0 21.1
2020-Jul-03 00:11 234 21.1
2020-Jul-03 00:01 225 0 21.7
2020-Jul-02 23:52 224 0 21.7
2020-Jul-02 23:42 234 1 21.7
2020-Jul-02 23:32 270 22.2
2020-Jul-02 23:23 244 0 22.2
2020-Jul-02 23:13 203 0 22.8
2020-Jul-02 23:04 261 1 23.3
2020-Jul-02 22:54 250 1 23.3
2020-Jul-02 22:44 227 0 23.3
2020-Jul-02 22:34 222 0 23.9
2020-Jul-02 22:24 226 2 23.9
2020-Jul-02 22:14 254 0 23.9
2020-Jul-02 22:05 269 1 24.4
2020-Jul-02 21:55 175 24.4
2020-Jul-02 21:46 240 0 24.4
2020-Jul-02 21:36 258 2 24.4
2020-Jul-02 21:26 219 1 25.0
2020-Jul-02 21:17 229 0 25.0
2020-Jul-02 21:07 224 1 25.0
2020-Jul-02 20:57 224 2 25.6
2020-Jul-02 20:47 258 0 26.1
2020-Jul-02 20:38 264 0 26.1
2020-Jul-02 20:29 235 1 26.1
2020-Jul-02 20:19 159 25.6
2020-Jul-02 20:10 222 1 26.1
2020-Jul-02 20:01 214 0 26.1